Year,Month,Day,Hour,Minute,Value (Times are PST for temperature in C)
2013,10,17,00,00,6.60
2013,10,17,00,01,6.60
2013,10,17,00,02,6.60
2013,10,17,00,03,6.60
2013,10,17,00,04,6.60
2013,10,17,00,05,6.60
2013,10,17,00,06,6.60
2013,10,17,00,07,6.60
2013,10,17,00,08,6.60
2013,10,17,00,09,6.60
2013,10,17,00,10,6.60
2013,10,17,00,11,6.60
2013,10,17,00,12,6.60
2013,10,17,00,13,6.60
2013,10,17,00,14,6.60
2013,10,17,00,15,6.60
2013,10,17,00,16,6.60
2013,10,17,00,17,6.60
2013,10,17,00,18,6.60
2013,10,17,00,19,6.60
2013,10,17,00,20,6.60
2013,10,17,00,21,6.60
2013,10,17,00,22,6.70
2013,10,17,00,23,6.70
2013,10,17,00,24,6.70
2013,10,17,00,25,6.60
2013,10,17,00,26,6.60
2013,10,17,00,27,6.60
2013,10,17,00,28,6.60
2013,10,17,00,29,6.60
2013,10,17,00,30,6.60
2013,10,17,00,31,6.60
2013,10,17,00,32,6.60
2013,10,17,00,33,6.60
2013,10,17,00,34,6.50
2013,10,17,00,35,6.40
2013,10,17,00,36,6.50
2013,10,17,00,37,6.60
2013,10,17,00,38,6.60
2013,10,17,00,39,6.60
2013,10,17,00,40,6.60
2013,10,17,00,41,6.60
2013,10,17,00,42,6.60
2013,10,17,00,43,6.60
2013,10,17,00,44,6.60
2013,10,17,00,45,6.60
2013,10,17,00,46,6.50
2013,10,17,00,47,6.40
2013,10,17,00,48,6.40
2013,10,17,00,49,6.50
2013,10,17,00,50,6.40
2013,10,17,00,51,6.40
2013,10,17,00,52,6.50
2013,10,17,00,53,6.50
2013,10,17,00,54,6.50
2013,10,17,00,55,6.60
2013,10,17,00,56,6.60
2013,10,17,00,57,6.60
2013,10,17,00,58,6.60
2013,10,17,00,59,6.60
2013,10,17,01,00,6.60
2013,10,17,01,01,6.60
2013,10,17,01,02,6.60
2013,10,17,01,03,6.60
2013,10,17,01,04,6.60
2013,10,17,01,05,6.60
2013,10,17,01,06,6.60
2013,10,17,01,07,6.60
2013,10,17,01,08,6.60
2013,10,17,01,09,6.50
2013,10,17,01,10,6.40
2013,10,17,01,11,6.40
2013,10,17,01,12,6.40
2013,10,17,01,13,6.40
2013,10,17,01,14,6.40
2013,10,17,01,15,6.40
2013,10,17,01,16,6.30
2013,10,17,01,17,6.30
2013,10,17,01,18,6.30
2013,10,17,01,19,6.30
2013,10,17,01,20,6.20
2013,10,17,01,21,6.20
2013,10,17,01,22,6.20
2013,10,17,01,23,6.20
2013,10,17,01,24,6.20
2013,10,17,01,25,6.20
2013,10,17,01,26,6.20
2013,10,17,01,27,6.20
2013,10,17,01,28,6.20
2013,10,17,01,29,6.20
2013,10,17,01,30,6.20
2013,10,17,01,31,6.20
2013,10,17,01,32,6.20
2013,10,17,01,33,6.20
2013,10,17,01,34,6.30
2013,10,17,01,35,6.30
2013,10,17,01,36,6.30
2013,10,17,01,37,6.40
2013,10,17,01,38,6.30
2013,10,17,01,39,6.30
2013,10,17,01,40,6.20
2013,10,17,01,41,6.20
2013,10,17,01,42,6.20
2013,10,17,01,43,6.20
2013,10,17,01,44,6.20
2013,10,17,01,45,6.20
2013,10,17,01,46,6.20
2013,10,17,01,47,6.20
2013,10,17,01,48,6.20
2013,10,17,01,49,6.20
2013,10,17,01,50,6.20
2013,10,17,01,51,6.20
2013,10,17,01,52,6.20
2013,10,17,01,53,6.20
2013,10,17,01,54,6.20
2013,10,17,01,55,6.20
2013,10,17,01,56,6.10
2013,10,17,01,57,6.10
2013,10,17,01,58,6.10
2013,10,17,01,59,6.20
2013,10,17,02,00,6.10
2013,10,17,02,01,6.10
2013,10,17,02,02,6.10
2013,10,17,02,03,6.10
2013,10,17,02,04,6.10
2013,10,17,02,05,6.10
2013,10,17,02,06,6.10
2013,10,17,02,07,6.10
2013,10,17,02,08,6.10
2013,10,17,02,09,6.10
2013,10,17,02,10,6.10
2013,10,17,02,11,6.10
2013,10,17,02,12,6.10
2013,10,17,02,13,6.10
2013,10,17,02,14,6.10
2013,10,17,02,15,6.10
2013,10,17,02,16,6.10
2013,10,17,02,17,6.10
2013,10,17,02,18,6.00
2013,10,17,02,19,6.00
2013,10,17,02,20,6.00
2013,10,17,02,21,5.90
2013,10,17,02,22,6.00
2013,10,17,02,23,6.00
2013,10,17,02,24,6.00
2013,10,17,02,25,6.00
2013,10,17,02,26,6.00
2013,10,17,02,27,6.00
2013,10,17,02,28,6.00
2013,10,17,02,29,6.00
2013,10,17,02,30,6.00
2013,10,17,02,31,6.00
2013,10,17,02,32,6.00
2013,10,17,02,33,6.00
2013,10,17,02,34,6.00
2013,10,17,02,35,6.00
2013,10,17,02,36,6.00
2013,10,17,02,37,6.00
2013,10,17,02,38,5.90
2013,10,17,02,39,5.90
2013,10,17,02,40,5.90
2013,10,17,02,41,6.00
2013,10,17,02,42,6.00
2013,10,17,02,43,6.00
2013,10,17,02,44,6.00
2013,10,17,02,45,5.90
2013,10,17,02,46,5.90
2013,10,17,02,47,5.80
2013,10,17,02,48,5.80
2013,10,17,02,49,5.80
2013,10,17,02,50,5.80
2013,10,17,02,51,5.70
2013,10,17,02,52,5.70
2013,10,17,02,53,5.80
2013,10,17,02,54,5.80
2013,10,17,02,55,5.80
2013,10,17,02,56,5.90
2013,10,17,02,57,5.90
2013,10,17,02,58,5.90
2013,10,17,02,59,5.90
2013,10,17,03,00,5.90
2013,10,17,03,01,5.90
2013,10,17,03,02,5.90
2013,10,17,03,03,5.90
2013,10,17,03,04,5.90
2013,10,17,03,05,5.90
2013,10,17,03,06,5.90
2013,10,17,03,07,5.90
2013,10,17,03,08,6.00
2013,10,17,03,09,6.00
2013,10,17,03,10,6.00
2013,10,17,03,11,6.00
2013,10,17,03,12,6.00
2013,10,17,03,13,6.00
2013,10,17,03,14,6.10
2013,10,17,03,15,6.10
2013,10,17,03,16,6.10
2013,10,17,03,17,6.00
2013,10,17,03,18,6.00
2013,10,17,03,19,6.10
2013,10,17,03,20,6.10
2013,10,17,03,21,6.10
2013,10,17,03,22,6.10
2013,10,17,03,23,6.00
2013,10,17,03,24,6.00
2013,10,17,03,25,5.90
2013,10,17,03,26,5.90
2013,10,17,03,27,5.80
2013,10,17,03,28,5.80
2013,10,17,03,29,5.80
2013,10,17,03,30,5.70
2013,10,17,03,31,5.70
2013,10,17,03,32,5.70
2013,10,17,03,33,5.70
2013,10,17,03,34,5.70
2013,10,17,03,35,5.70
2013,10,17,03,36,5.70
2013,10,17,03,37,5.70
2013,10,17,03,38,5.60
2013,10,17,03,39,5.60
2013,10,17,03,40,5.60
2013,10,17,03,41,5.60
2013,10,17,03,42,5.70
2013,10,17,03,43,5.70
2013,10,17,03,44,5.70
2013,10,17,03,45,5.70
2013,10,17,03,46,5.70
2013,10,17,03,47,5.60
2013,10,17,03,48,5.50
2013,10,17,03,49,5.50
2013,10,17,03,50,5.40
2013,10,17,03,51,5.30
2013,10,17,03,52,5.30
2013,10,17,03,53,5.30
2013,10,17,03,54,5.30
2013,10,17,03,55,5.30
2013,10,17,03,56,5.30
2013,10,17,03,57,5.30
2013,10,17,03,58,5.30
2013,10,17,03,59,5.40
2013,10,17,04,00,5.40
2013,10,17,04,01,5.50
2013,10,17,04,02,5.50
2013,10,17,04,03,5.50
2013,10,17,04,04,5.50
2013,10,17,04,05,5.50
2013,10,17,04,06,5.50
2013,10,17,04,07,5.50
2013,10,17,04,08,5.40
2013,10,17,04,09,5.40
2013,10,17,04,10,5.40
2013,10,17,04,11,5.40
2013,10,17,04,12,5.40
2013,10,17,04,13,5.40
2013,10,17,04,14,5.40
2013,10,17,04,15,5.40
2013,10,17,04,16,5.50
2013,10,17,04,17,5.50
2013,10,17,04,18,5.50
2013,10,17,04,19,5.50
2013,10,17,04,20,5.50
2013,10,17,04,21,5.50
2013,10,17,04,22,5.40
2013,10,17,04,23,5.40
2013,10,17,04,24,5.30
2013,10,17,04,25,5.30
2013,10,17,04,26,5.30
2013,10,17,04,27,5.30
2013,10,17,04,28,5.30
2013,10,17,04,29,5.30
2013,10,17,04,30,5.30
2013,10,17,04,31,5.30
2013,10,17,04,32,5.30
2013,10,17,04,33,5.20
2013,10,17,04,34,5.20
2013,10,17,04,35,5.20
2013,10,17,04,36,5.20
2013,10,17,04,37,5.30
2013,10,17,04,38,5.20
2013,10,17,04,39,5.20
2013,10,17,04,40,5.30
2013,10,17,04,41,5.30
2013,10,17,04,42,5.30
2013,10,17,04,43,5.30
2013,10,17,04,44,5.30
2013,10,17,04,45,5.30
2013,10,17,04,46,5.30
2013,10,17,04,47,5.30
2013,10,17,04,48,5.40
2013,10,17,04,49,5.40
2013,10,17,04,50,5.40
2013,10,17,04,51,5.40
2013,10,17,04,52,5.40
2013,10,17,04,53,5.40
2013,10,17,04,54,5.40
2013,10,17,04,55,5.40
2013,10,17,04,56,5.40
2013,10,17,04,57,5.40
2013,10,17,04,58,5.40
2013,10,17,04,59,5.40
2013,10,17,05,00,5.40
2013,10,17,05,01,5.30
2013,10,17,05,02,5.30
2013,10,17,05,03,5.30
2013,10,17,05,04,5.30
2013,10,17,05,05,5.30
2013,10,17,05,06,5.20
2013,10,17,05,07,5.20
2013,10,17,05,08,5.20
2013,10,17,05,09,5.20
2013,10,17,05,10,5.20
2013,10,17,05,11,5.20
2013,10,17,05,12,5.20
2013,10,17,05,13,5.20
2013,10,17,05,14,5.10
2013,10,17,05,15,5.10
2013,10,17,05,16,5.10
2013,10,17,05,17,5.10
2013,10,17,05,18,5.10
2013,10,17,05,19,5.10
2013,10,17,05,20,5.10
2013,10,17,05,21,5.10
2013,10,17,05,22,5.10
2013,10,17,05,23,5.10
2013,10,17,05,24,5.10
2013,10,17,05,25,5.00
2013,10,17,05,26,4.90
2013,10,17,05,27,4.90
2013,10,17,05,28,4.90
2013,10,17,05,29,4.90
2013,10,17,05,30,4.90
2013,10,17,05,31,4.90
2013,10,17,05,32,4.90
2013,10,17,05,33,4.90
2013,10,17,05,34,4.80
2013,10,17,05,35,4.80
2013,10,17,05,36,4.80
2013,10,17,05,37,4.80
2013,10,17,05,38,4.80
2013,10,17,05,39,4.80
2013,10,17,05,40,4.80
2013,10,17,05,41,4.80
2013,10,17,05,42,4.80
2013,10,17,05,43,4.80
2013,10,17,05,44,4.80
2013,10,17,05,45,4.80
2013,10,17,05,46,4.80
2013,10,17,05,47,4.70
2013,10,17,05,48,4.70
2013,10,17,05,49,4.60
2013,10,17,05,50,4.60
2013,10,17,05,51,4.60
2013,10,17,05,52,4.70
2013,10,17,05,53,4.70
2013,10,17,05,54,4.80
2013,10,17,05,55,4.80
2013,10,17,05,56,4.90
2013,10,17,05,57,4.90
2013,10,17,05,58,4.90
2013,10,17,05,59,4.90
2013,10,17,06,00,5.10
2013,10,17,06,01,5.10
2013,10,17,06,02,5.10
2013,10,17,06,03,5.10
2013,10,17,06,04,5.10
2013,10,17,06,05,5.10
2013,10,17,06,06,5.10
2013,10,17,06,07,5.10
2013,10,17,06,08,5.10
2013,10,17,06,09,5.10
2013,10,17,06,10,5.10
2013,10,17,06,11,5.10
2013,10,17,06,12,5.20
2013,10,17,06,13,5.20
2013,10,17,06,14,5.20
2013,10,17,06,15,5.30
2013,10,17,06,16,5.30
2013,10,17,06,17,5.30
2013,10,17,06,18,5.30
2013,10,17,06,19,5.30
2013,10,17,06,20,5.30
2013,10,17,06,21,5.30
2013,10,17,06,22,5.40
2013,10,17,06,23,5.40
2013,10,17,06,24,5.40
2013,10,17,06,25,5.50
2013,10,17,06,26,5.50
2013,10,17,06,27,5.50
2013,10,17,06,28,5.50
2013,10,17,06,29,5.50
2013,10,17,06,30,5.50
2013,10,17,06,31,5.50
2013,10,17,06,32,5.50
2013,10,17,06,33,5.60
2013,10,17,06,34,5.60
2013,10,17,06,35,5.50
2013,10,17,06,36,5.50
2013,10,17,06,37,5.60
2013,10,17,06,38,5.60
2013,10,17,06,39,5.60
2013,10,17,06,40,5.70
2013,10,17,06,41,5.70
2013,10,17,06,42,5.70
2013,10,17,06,43,5.80
2013,10,17,06,44,5.80
2013,10,17,06,45,5.80
2013,10,17,06,46,5.80
2013,10,17,06,47,5.80
2013,10,17,06,48,5.80
2013,10,17,06,49,5.80
2013,10,17,06,50,5.90
2013,10,17,06,51,5.90
2013,10,17,06,52,5.90
2013,10,17,06,53,5.90
2013,10,17,06,54,5.90
2013,10,17,06,55,5.90
2013,10,17,06,56,5.90
2013,10,17,06,57,5.90
2013,10,17,06,58,5.90
2013,10,17,06,59,5.90
2013,10,17,07,00,6.00
2013,10,17,07,01,6.00
2013,10,17,07,02,6.00
2013,10,17,07,03,6.00
2013,10,17,07,04,6.00
2013,10,17,07,05,6.00
2013,10,17,07,06,6.00
2013,10,17,07,07,6.10
2013,10,17,07,08,6.10
2013,10,17,07,09,6.10
2013,10,17,07,10,6.10
2013,10,17,07,11,6.10
2013,10,17,07,12,6.10
2013,10,17,07,13,6.20
2013,10,17,07,14,6.20
2013,10,17,07,15,6.20
2013,10,17,07,16,6.20
2013,10,17,07,17,6.20
2013,10,17,07,18,6.20
2013,10,17,07,19,6.20
2013,10,17,07,20,6.20
2013,10,17,07,21,6.20
2013,10,17,07,22,6.20
2013,10,17,07,23,6.20
2013,10,17,07,24,6.20
2013,10,17,07,25,6.20
2013,10,17,07,26,6.20
2013,10,17,07,27,6.20
2013,10,17,07,28,6.20
2013,10,17,07,29,6.20
2013,10,17,07,30,6.20
2013,10,17,07,31,6.20
2013,10,17,07,32,6.20
2013,10,17,07,33,6.20
2013,10,17,07,34,6.20
2013,10,17,07,35,6.30
2013,10,17,07,36,6.30
2013,10,17,07,37,6.30
2013,10,17,07,38,6.30
2013,10,17,07,39,6.30
2013,10,17,07,40,6.30
2013,10,17,07,41,6.40
2013,10,17,07,42,6.40
2013,10,17,07,43,6.40
2013,10,17,07,44,6.40
2013,10,17,07,45,6.40
2013,10,17,07,46,6.40
2013,10,17,07,47,6.40
2013,10,17,07,48,6.40
2013,10,17,07,49,6.50
2013,10,17,07,50,6.60
2013,10,17,07,51,6.60
2013,10,17,07,52,6.60
2013,10,17,07,53,6.60
2013,10,17,07,54,6.60
2013,10,17,07,55,6.60
2013,10,17,07,56,6.60
2013,10,17,07,57,6.70
2013,10,17,07,58,6.70
2013,10,17,07,59,6.70
2013,10,17,08,00,6.80
2013,10,17,08,01,6.80
2013,10,17,08,02,6.80
2013,10,17,08,03,6.80
2013,10,17,08,04,6.90
2013,10,17,08,05,6.90
2013,10,17,08,06,6.90
2013,10,17,08,07,7.00
2013,10,17,08,08,7.00
2013,10,17,08,09,7.00
2013,10,17,08,10,7.10
2013,10,17,08,11,7.10
2013,10,17,08,12,7.10
2013,10,17,08,13,7.20
2013,10,17,08,14,7.20
2013,10,17,08,15,7.20
2013,10,17,08,16,7.20
2013,10,17,08,17,7.30
2013,10,17,08,18,7.30
2013,10,17,08,19,7.30
2013,10,17,08,20,7.30
2013,10,17,08,21,7.30
2013,10,17,08,22,7.30
2013,10,17,08,23,7.30
2013,10,17,08,24,7.40
2013,10,17,08,25,7.40
2013,10,17,08,26,7.50
2013,10,17,08,27,7.50
2013,10,17,08,28,7.60
2013,10,17,08,29,7.60
2013,10,17,08,30,7.70
2013,10,17,08,31,7.80
2013,10,17,08,32,7.80
2013,10,17,08,33,7.90
2013,10,17,08,34,7.90
2013,10,17,08,35,8.00
2013,10,17,08,36,8.10
2013,10,17,08,37,8.10
2013,10,17,08,38,8.20
2013,10,17,08,39,8.20
2013,10,17,08,40,8.30
2013,10,17,08,41,8.40
2013,10,17,08,42,8.40
2013,10,17,08,43,8.40
2013,10,17,08,44,8.50
2013,10,17,08,45,8.50
2013,10,17,08,46,8.50
2013,10,17,08,47,8.60
2013,10,17,08,48,8.60
2013,10,17,08,49,8.60
2013,10,17,08,50,8.70
2013,10,17,08,51,8.70
2013,10,17,08,52,8.70
2013,10,17,08,53,8.70
2013,10,17,08,54,8.80
2013,10,17,08,55,8.80
2013,10,17,08,56,8.80
2013,10,17,08,57,8.80
2013,10,17,08,58,8.90
2013,10,17,08,59,8.90
2013,10,17,09,00,8.90
2013,10,17,09,01,8.90
2013,10,17,09,02,9.00
2013,10,17,09,03,9.00
2013,10,17,09,04,9.00
2013,10,17,09,05,9.00
2013,10,17,09,06,9.00
2013,10,17,09,07,9.10
2013,10,17,09,08,9.10
2013,10,17,09,09,9.10
2013,10,17,09,10,9.10
2013,10,17,09,11,9.10
2013,10,17,09,12,9.10
2013,10,17,09,13,9.10
2013,10,17,09,14,9.10
2013,10,17,09,15,9.20
2013,10,17,09,16,9.10
2013,10,17,09,17,9.10
2013,10,17,09,18,9.10
2013,10,17,09,19,9.10
2013,10,17,09,20,9.20
2013,10,17,09,21,9.20
2013,10,17,09,22,9.20
2013,10,17,09,23,9.20
2013,10,17,09,24,9.20
2013,10,17,09,25,9.20
2013,10,17,09,26,9.20
2013,10,17,09,27,9.20
2013,10,17,09,28,9.20
2013,10,17,09,29,9.20
2013,10,17,09,30,9.20
2013,10,17,09,31,9.20
2013,10,17,09,32,9.20
2013,10,17,09,33,9.20
2013,10,17,09,34,9.20
2013,10,17,09,35,9.20
2013,10,17,09,36,9.20
2013,10,17,09,37,9.20
2013,10,17,09,38,9.20
2013,10,17,09,39,9.20
2013,10,17,09,40,9.20
2013,10,17,09,41,9.20
2013,10,17,09,42,9.20
2013,10,17,09,43,9.20
2013,10,17,09,44,9.20
2013,10,17,09,45,9.20
2013,10,17,09,46,9.20
2013,10,17,09,47,9.20
2013,10,17,09,48,9.20
2013,10,17,09,49,9.20
2013,10,17,09,50,9.20
2013,10,17,09,51,9.10
2013,10,17,09,52,9.10
2013,10,17,09,53,9.10
2013,10,17,09,54,9.00
2013,10,17,09,55,9.00
2013,10,17,09,56,9.00
2013,10,17,09,57,8.90
2013,10,17,09,58,8.90
2013,10,17,09,59,8.90
2013,10,17,10,00,8.90
2013,10,17,10,01,8.90
2013,10,17,10,02,8.90
2013,10,17,10,03,9.00
2013,10,17,10,04,9.00
2013,10,17,10,05,9.00
2013,10,17,10,06,9.00
2013,10,17,10,07,9.00
2013,10,17,10,08,9.00
2013,10,17,10,09,9.00
2013,10,17,10,10,8.90
2013,10,17,10,11,8.90
2013,10,17,10,12,8.90
2013,10,17,10,13,8.90
2013,10,17,10,14,8.90
2013,10,17,10,15,8.90
2013,10,17,10,16,8.90
2013,10,17,10,17,8.90
2013,10,17,10,18,8.90
2013,10,17,10,19,8.80
2013,10,17,10,20,8.80
2013,10,17,10,21,8.80
2013,10,17,10,22,8.90
2013,10,17,10,23,8.90
2013,10,17,10,24,8.90
2013,10,17,10,25,9.00
2013,10,17,10,26,9.00
2013,10,17,10,27,8.90
2013,10,17,10,28,8.90
2013,10,17,10,29,8.90
2013,10,17,10,30,8.90
2013,10,17,10,31,9.00
2013,10,17,10,32,9.00
2013,10,17,10,33,9.00
2013,10,17,10,34,9.10
2013,10,17,10,35,9.10
2013,10,17,10,36,9.10
2013,10,17,10,37,9.10
2013,10,17,10,38,9.10
2013,10,17,10,39,9.10
2013,10,17,10,40,9.10
2013,10,17,10,41,9.10
2013,10,17,10,42,9.10
2013,10,17,10,43,9.20
2013,10,17,10,44,9.20
2013,10,17,10,45,9.20
2013,10,17,10,46,9.20
2013,10,17,10,47,9.20
2013,10,17,10,48,9.20
2013,10,17,10,49,9.30
2013,10,17,10,50,9.30
2013,10,17,10,51,9.40
2013,10,17,10,52,9.40
2013,10,17,10,53,9.40
2013,10,17,10,54,9.40
2013,10,17,10,55,9.40
2013,10,17,10,56,9.40
2013,10,17,10,57,9.50
2013,10,17,10,58,9.50
2013,10,17,10,59,9.50
2013,10,17,11,00,9.50
2013,10,17,11,01,9.50
2013,10,17,11,02,9.50
2013,10,17,11,03,9.50
2013,10,17,11,04,9.50
2013,10,17,11,05,9.50
2013,10,17,11,06,9.60
2013,10,17,11,07,9.60
2013,10,17,11,08,9.60
2013,10,17,11,09,9.70
2013,10,17,11,10,9.70
2013,10,17,11,11,9.70
2013,10,17,11,12,9.70
2013,10,17,11,13,9.70
2013,10,17,11,14,9.70
2013,10,17,11,15,9.70
2013,10,17,11,16,9.70
2013,10,17,11,17,9.80
2013,10,17,11,18,9.90
2013,10,17,11,19,9.90
2013,10,17,11,20,10.00
2013,10,17,11,21,10.10
2013,10,17,11,22,10.20
2013,10,17,11,23,10.10
2013,10,17,11,24,10.00
2013,10,17,11,25,9.90
2013,10,17,11,26,9.90
2013,10,17,11,27,9.90
2013,10,17,11,28,9.90
2013,10,17,11,29,10.00
2013,10,17,11,30,10.10
2013,10,17,11,31,10.10
2013,10,17,11,32,10.20
2013,10,17,11,33,10.30
2013,10,17,11,34,10.40
2013,10,17,11,35,10.50
2013,10,17,11,36,10.60
2013,10,17,11,37,10.60
2013,10,17,11,38,10.70
2013,10,17,11,39,10.60
2013,10,17,11,40,10.60
2013,10,17,11,41,10.60
2013,10,17,11,42,10.70
2013,10,17,11,43,10.70
2013,10,17,11,44,10.80
2013,10,17,11,45,10.80
2013,10,17,11,46,10.90
2013,10,17,11,47,10.90
2013,10,17,11,48,10.90
2013,10,17,11,49,11.00
2013,10,17,11,50,11.10
2013,10,17,11,51,11.20
2013,10,17,11,52,11.20
2013,10,17,11,53,11.20
2013,10,17,11,54,11.20
2013,10,17,11,55,11.30
2013,10,17,11,56,11.30
2013,10,17,11,57,11.30
2013,10,17,11,58,11.30
2013,10,17,11,59,11.40
2013,10,17,12,00,11.40
2013,10,17,12,01,11.40
2013,10,17,12,02,11.30
2013,10,17,12,03,11.20
2013,10,17,12,04,11.30
2013,10,17,12,05,11.30
2013,10,17,12,06,11.40
2013,10,17,12,07,11.40
2013,10,17,12,08,11.40
2013,10,17,12,09,11.40
2013,10,17,12,10,11.40
2013,10,17,12,11,11.40
2013,10,17,12,12,11.50
2013,10,17,12,13,11.60
2013,10,17,12,14,11.50
2013,10,17,12,15,11.40
2013,10,17,12,16,11.40
2013,10,17,12,17,11.40
2013,10,17,12,18,11.40
2013,10,17,12,19,11.40
2013,10,17,12,20,11.40
2013,10,17,12,21,11.40
2013,10,17,12,22,11.40
2013,10,17,12,23,11.50
2013,10,17,12,24,11.60
2013,10,17,12,25,11.60
2013,10,17,12,26,11.60
2013,10,17,12,27,11.70
2013,10,17,12,28,11.70
2013,10,17,12,29,11.80
2013,10,17,12,30,11.80
2013,10,17,12,31,11.80
2013,10,17,12,32,11.90
2013,10,17,12,33,12.00
2013,10,17,12,34,12.10
2013,10,17,12,35,12.20
2013,10,17,12,36,12.30
2013,10,17,12,37,12.40
2013,10,17,12,38,12.50
2013,10,17,12,39,12.60
2013,10,17,12,40,12.70
2013,10,17,12,41,12.80
2013,10,17,12,42,12.90
2013,10,17,12,43,13.00
2013,10,17,12,44,13.00
2013,10,17,12,45,13.10
2013,10,17,12,46,13.10
2013,10,17,12,47,13.20
2013,10,17,12,48,13.30
2013,10,17,12,49,13.30
2013,10,17,12,50,13.30
2013,10,17,12,51,13.40
2013,10,17,12,52,13.40
2013,10,17,12,53,13.50
2013,10,17,12,54,13.50
2013,10,17,12,55,13.50
2013,10,17,12,56,13.50
2013,10,17,12,57,13.60
2013,10,17,12,58,13.60
2013,10,17,12,59,13.60
2013,10,17,13,00,13.70
2013,10,17,13,01,13.70
2013,10,17,13,02,13.70
2013,10,17,13,03,13.70
2013,10,17,13,04,13.70
2013,10,17,13,05,13.70
2013,10,17,13,06,13.70
2013,10,17,13,07,13.70
2013,10,17,13,08,13.70
2013,10,17,13,09,13.70
2013,10,17,13,10,13.60
2013,10,17,13,11,13.60
2013,10,17,13,12,13.60
2013,10,17,13,13,13.50
2013,10,17,13,14,13.50
2013,10,17,13,15,13.40
2013,10,17,13,16,13.40
2013,10,17,13,17,13.50
2013,10,17,13,18,13.60
2013,10,17,13,19,13.70
2013,10,17,13,20,13.70
2013,10,17,13,21,13.80
2013,10,17,13,22,13.80
2013,10,17,13,23,13.80
2013,10,17,13,24,13.90
2013,10,17,13,25,14.00
2013,10,17,13,26,14.00
2013,10,17,13,27,14.10
2013,10,17,13,28,14.20
2013,10,17,13,29,14.20
2013,10,17,13,30,14.20
2013,10,17,13,31,14.20
2013,10,17,13,32,14.10
2013,10,17,13,33,14.10
2013,10,17,13,34,14.00
2013,10,17,13,35,14.00
2013,10,17,13,36,14.00
2013,10,17,13,37,14.00
2013,10,17,13,38,14.00
2013,10,17,13,39,14.00
2013,10,17,13,40,14.00
2013,10,17,13,41,13.90
2013,10,17,13,42,13.90
2013,10,17,13,43,13.80
2013,10,17,13,44,13.70
2013,10,17,13,45,13.70
2013,10,17,13,46,13.70
2013,10,17,13,47,13.70
2013,10,17,13,48,13.70
2013,10,17,13,49,13.70
2013,10,17,13,50,13.70
2013,10,17,13,51,13.70
2013,10,17,13,52,13.70
2013,10,17,13,53,13.60
2013,10,17,13,54,13.60
2013,10,17,13,55,13.50
2013,10,17,13,56,13.50
2013,10,17,13,57,13.60
2013,10,17,13,58,13.70
2013,10,17,13,59,13.70
2013,10,17,14,00,13.70
2013,10,17,14,01,13.70
2013,10,17,14,02,13.70
2013,10,17,14,03,13.70
2013,10,17,14,04,13.70
2013,10,17,14,05,13.70
2013,10,17,14,06,13.70
2013,10,17,14,07,13.70
2013,10,17,14,08,13.70
2013,10,17,14,09,13.70
2013,10,17,14,10,13.70
2013,10,17,14,11,13.70
2013,10,17,14,12,13.60
2013,10,17,14,13,13.60
2013,10,17,14,14,13.50
2013,10,17,14,15,13.50
2013,10,17,14,16,13.40
2013,10,17,14,17,13.40
2013,10,17,14,18,13.40
2013,10,17,14,19,13.50
2013,10,17,14,20,13.50
2013,10,17,14,21,13.50
2013,10,17,14,22,13.50
2013,10,17,14,23,13.50
2013,10,17,14,24,13.50
2013,10,17,14,25,13.50
2013,10,17,14,26,13.50
2013,10,17,14,27,13.50
2013,10,17,14,28,13.60
2013,10,17,14,29,13.60
2013,10,17,14,30,13.50
2013,10,17,14,31,13.50
2013,10,17,14,32,13.50
2013,10,17,14,33,13.50
2013,10,17,14,34,13.50
2013,10,17,14,35,13.60
2013,10,17,14,36,13.60
2013,10,17,14,37,13.70
2013,10,17,14,38,13.70
2013,10,17,14,39,13.70
2013,10,17,14,40,13.70
2013,10,17,14,41,13.70
2013,10,17,14,42,13.80
2013,10,17,14,43,13.80
2013,10,17,14,44,13.80
2013,10,17,14,45,13.80
2013,10,17,14,46,13.80
2013,10,17,14,47,13.80
2013,10,17,14,48,13.80
2013,10,17,14,49,13.80
2013,10,17,14,50,13.80
2013,10,17,14,51,13.70
2013,10,17,14,52,13.70
2013,10,17,14,53,13.70
2013,10,17,14,54,13.70
2013,10,17,14,55,13.70
2013,10,17,14,56,13.70
2013,10,17,14,57,13.70
2013,10,17,14,58,13.70
2013,10,17,14,59,13.80
2013,10,17,15,00,13.80
2013,10,17,15,01,13.80
2013,10,17,15,02,13.70
2013,10,17,15,03,13.70
2013,10,17,15,04,13.80
2013,10,17,15,05,13.80
2013,10,17,15,06,13.80
2013,10,17,15,07,13.80
2013,10,17,15,08,13.80
2013,10,17,15,09,13.90
2013,10,17,15,10,13.90
2013,10,17,15,11,13.90
2013,10,17,15,12,14.00
2013,10,17,15,13,14.10
2013,10,17,15,14,14.10
2013,10,17,15,15,14.10
2013,10,17,15,16,14.00
2013,10,17,15,17,14.00
2013,10,17,15,18,13.90
2013,10,17,15,19,13.80
2013,10,17,15,20,13.80
2013,10,17,15,21,13.80
2013,10,17,15,22,13.70
2013,10,17,15,23,13.70
2013,10,17,15,24,13.70
2013,10,17,15,25,13.70
2013,10,17,15,26,13.60
2013,10,17,15,27,13.60
2013,10,17,15,28,13.70
2013,10,17,15,29,13.70
2013,10,17,15,30,13.70
2013,10,17,15,31,13.70
2013,10,17,15,32,13.80
2013,10,17,15,33,13.90
2013,10,17,15,34,13.90
2013,10,17,15,35,14.00
2013,10,17,15,36,14.10
2013,10,17,15,37,14.20
2013,10,17,15,38,14.20
2013,10,17,15,39,14.20
2013,10,17,15,40,14.00
2013,10,17,15,41,13.90
2013,10,17,15,42,13.80
2013,10,17,15,43,13.80
2013,10,17,15,44,13.80
2013,10,17,15,45,13.80
2013,10,17,15,46,13.80
2013,10,17,15,47,13.70
2013,10,17,15,48,13.70
2013,10,17,15,49,13.60
2013,10,17,15,50,13.50
2013,10,17,15,51,13.50
2013,10,17,15,52,13.60
2013,10,17,15,53,13.70
2013,10,17,15,54,13.80
2013,10,17,15,55,13.90
2013,10,17,15,56,14.00
2013,10,17,15,57,14.00
2013,10,17,15,58,14.10
2013,10,17,15,59,14.20
2013,10,17,16,00,14.20
2013,10,17,16,01,14.20
2013,10,17,16,02,14.20
2013,10,17,16,03,14.20
2013,10,17,16,04,14.20
2013,10,17,16,05,14.30
2013,10,17,16,06,14.30
2013,10,17,16,07,14.30
2013,10,17,16,08,14.30
2013,10,17,16,09,14.20
2013,10,17,16,10,14.20
2013,10,17,16,11,14.20
2013,10,17,16,12,14.20
2013,10,17,16,13,14.20
2013,10,17,16,14,14.00
2013,10,17,16,15,13.90
2013,10,17,16,16,13.90
2013,10,17,16,17,13.80
2013,10,17,16,18,13.80
2013,10,17,16,19,13.80
2013,10,17,16,20,13.90
2013,10,17,16,21,13.90
2013,10,17,16,22,13.90
2013,10,17,16,23,13.90
2013,10,17,16,24,13.80
2013,10,17,16,25,13.80
2013,10,17,16,26,13.70
2013,10,17,16,27,13.70
2013,10,17,16,28,13.70
2013,10,17,16,29,13.70
2013,10,17,16,30,13.70
2013,10,17,16,31,13.70
2013,10,17,16,32,13.70
2013,10,17,16,33,13.70
2013,10,17,16,34,13.70
2013,10,17,16,35,13.70
2013,10,17,16,36,13.70
2013,10,17,16,37,13.70
2013,10,17,16,38,13.70
2013,10,17,16,39,13.70
2013,10,17,16,40,13.70
2013,10,17,16,41,13.70
2013,10,17,16,42,13.70
2013,10,17,16,43,13.70
2013,10,17,16,44,13.70
2013,10,17,16,45,13.70
2013,10,17,16,46,13.70
2013,10,17,16,47,13.70
2013,10,17,16,48,13.70
2013,10,17,16,49,13.60
2013,10,17,16,50,13.60
2013,10,17,16,51,13.50
2013,10,17,16,52,13.50
2013,10,17,16,53,13.50
2013,10,17,16,54,13.50
2013,10,17,16,55,13.50
2013,10,17,16,56,13.50
2013,10,17,16,57,13.50
2013,10,17,16,58,13.50
2013,10,17,16,59,13.50
2013,10,17,17,00,13.50
2013,10,17,17,01,13.50
2013,10,17,17,02,13.50
2013,10,17,17,03,13.50
2013,10,17,17,04,13.40
2013,10,17,17,05,13.40
2013,10,17,17,06,13.30
2013,10,17,17,07,13.30
2013,10,17,17,08,13.30
2013,10,17,17,09,13.30
2013,10,17,17,10,13.30
2013,10,17,17,11,13.30
2013,10,17,17,12,13.30
2013,10,17,17,13,13.30
2013,10,17,17,14,13.30
2013,10,17,17,15,13.20
2013,10,17,17,16,13.20
2013,10,17,17,17,13.20
2013,10,17,17,18,13.10
2013,10,17,17,19,13.10
2013,10,17,17,20,13.00
2013,10,17,17,21,13.00
2013,10,17,17,22,12.90
2013,10,17,17,23,12.80
2013,10,17,17,24,12.80
2013,10,17,17,25,12.80
2013,10,17,17,26,12.80
2013,10,17,17,27,12.70
2013,10,17,17,28,12.70
2013,10,17,17,29,12.70
2013,10,17,17,30,12.70
2013,10,17,17,31,12.60
2013,10,17,17,32,12.60
2013,10,17,17,33,12.60
2013,10,17,17,34,12.50
2013,10,17,17,35,12.50
2013,10,17,17,36,12.40
2013,10,17,17,37,12.30
2013,10,17,17,38,12.30
2013,10,17,17,39,12.20
2013,10,17,17,40,12.20
2013,10,17,17,41,12.10
2013,10,17,17,42,12.10
2013,10,17,17,43,12.00
2013,10,17,17,44,12.00
2013,10,17,17,45,11.90
2013,10,17,17,46,11.90
2013,10,17,17,47,11.90
2013,10,17,17,48,11.90
2013,10,17,17,49,11.90